Wind_Speed
4 5 4 7 7 4 5 2 3 6 8 11 12 12 14 13 15 13 18 26 31 32 34 34 32 25 29 35 32 30 32 23 29 27 25 24 22 19 17 17 15 14 13 13 12 12 11 11 10
6 8 7 8 3 3 3 4 6 11 13 15 16 18 19 22 20 24 29 29 32 34 36 37 37 37 31 29 37 37 35 35 28 26 28 27 26 22 20 19 18 16 15 15 14 14 13 13 12
7 7 5 4 3 4 1 6 10 12 14 16 19 20 21 23 26 30 32 35 37 39 39 38 39 39 39 34 28 42 42 41 31 34 31 31 28 27 25 23 22 20 17 15 16 16 15 14 13
8 6 6 7 6 3 3 7 10 13 14 16 18 20 23 24 29 30 32 33 35 37 39 39 38 38 41 40 37 32 41 43 46 42 29 33 34 30 29 26 24 23 22 19 19 19 17 17 15
5 4 4 2 3 3 5 8 11 14 15 18 19 20 26 23 27 27 28 30 32 32 32 34 36 38 36 40 43 38 37 39 48 47 38 37 37 35 32 30 26 25 26 22 21 20 19 18 17
3 3 1 1 1 3 5 8 10 12 15 18 19 21 24 25 25 24 27 29 28 27 25 25 26 28 31 33 38 44 39 38 38 44 41 37 37 37 35 33 31 28 27 26 23 23 22 20 19
2 3 3 3 3 5 7 8 11 14 14 17 18 20 25 23 22 26 27 25 24 22 21 21 21 23 27 28 29 33 43 42 40 39 48 45 44 39 36 36 35 32 30 30 25 25 24 23 21
1 2 2 2 2 6 7 9 12 13 15 17 17 19 22 25 24 25 24 22 21 21 23 25 24 24 26 28 28 30 32 39 42 41 39 44 43 41 40 38 38 36 34 36 30 26 25 25 24
1 2 2 2 3 7 7 10 12 12 14 17 19 19 19 20 22 24 22 19 19 20 22 25 25 25 25 25 28 29 28 30 34 42 42 38 43 46 39 40 42 39 37 36 36 31 29 26 24
1 1 2 3 5 8 9 11 13 14 16 19 22 23 20 22 22 21 21 20 18 20 22 24 25 25 25 25 26 28 24 22 25 33 41 39 34 48 49 37 47 40 41 42 38 37 29 28 28
2 2 3 5 6 8 10 11 12 14 16 19 20 23 26 24 22 20 20 20 20 21 24 25 26 26 25 23 23 23 21 19 19 22 34 37 37 36 56 48 41 45 37 43 41 41 35 34 33
2 5 6 7 8 10 12 13 13 13 14 17 19 21 22 24 24 22 20 20 21 23 24 25 25 26 25 23 21 20 19 16 16 17 25 32 34 37 38 45 49 36 46 41 47 44 40 39 37
3 7 8 8 12 13 13 15 14 13 14 18 20 22 22 23 25 25 24 21 21 23 27 28 27 27 27 25 24 23 22 18 16 16 19 25 27 34 34 32 37 59 47 39 46 45 43 44 41
4 8 11 11 15 15 14 17 15 14 15 17 19 22 23 23 24 25 25 24 21 21 26 30 31 29 30 29 28 28 26 26 22 20 19 22 23 27 38 37 37 40 53 58 41 39 40 41 47
8 6 12 13 18 18 14 15 12 16 17 19 20 23 24 24 24 24 24 23 21 21 24 27 30 31 34 34 34 32 31 30 29 27 23 23 22 22 30 38 37 38 41 50 51 41 38 40 47
9 6 13 19 20 17 19 16 17 18 18 20 21 23 25 25 24 24 24 23 23 21 22 25 28 31 34 36 39 36 35 34 32 31 28 26 23 22 24 31 37 42 43 41 52 46 35 27 40
11 11 15 19 24 22 23 21 19 21 18 20 22 23 26 26 26 25 26 26 26 24 22 23 25 29 33 35 37 42 42 40 36 33 31 29 26 24 25 25 28 33 39 43 42 57 49 36 17
14 19 19 22 29 28 30 26 16 21 16 17 21 22 26 28 28 28 29 29 29 29 27 23 23 26 29 32 32 35 41 44 42 38 35 32 31 28 27 30 29 28 31 36 40 44 47 53 36
18 21 23 27 29 36 35 24 18 24 17 13 15 18 24 29 32 31 32 32 32 32 34 34 30 29 32 33 33 32 33 38 40 41 38 36 35 33 29 30 33 31 32 31 33 35 42 49 30
21 24 25 24 32 40 36 22 24 14 13 10 13 17 24 29 34 37 37 37 36 37 38 40 41 41 39 38 40 39 32 28 32 36 39 39 38 37 33 32 34 35 33 33 31 35 40 41 49
21 18 30 31 36 34 23 19 5 16 16 10 13 17 23 29 33 36 40 41 41 40 40 41 45 48 48 47 43 44 39 29 26 27 35 38 39 39 37 35 35 35 35 35 32 35 36 44 43
23 23 31 31 30 8 19 8 14 16 11 12 13 19 25 28 34 39 41 42 42 44 44 44 45 47 50 49 48 43 43 35 26 27 28 33 38 40 40 38 35 37 36 36 34 36 40 40 48
24 28 26 29 18 15 9 6 8 17 14 13 15 25 30 30 35 38 40 44 45 43 43 46 48 49 52 50 49 49 43 39 32 29 28 30 34 39 42 42 38 37 38 36 37 37 43 42 42
19 24 22 11 5 3 3 5 16 5 6 11 16 25 33 37 42 44 47 48 46 48 46 46 48 50 52 52 49 49 47 38 35 31 32 31 33 36 42 44 43 39 38 39 40 38 45 46 49
30 22 6 3 1 3 5 14 9 12 15 15 20 26 35 42 47 49 50 51 47 48 50 48 48 50 52 53 52 49 46 41 34 35 36 36 36 36 39 43 47 44 41 42 42 41 47 51 51
17 9 3 5 7 15 22 9 11 16 14 17 19 23 34 47 49 51 53 53 51 48 51 49 47 50 51 52 52 50 46 42 39 38 41 40 39 39 41 43 47 50 47 45 45 46 48 52 52
11 4 6 7 12 5 6 10 16 14 19 21 24 31 42 51 49 55 56 55 53 49 49 50 48 50 51 51 50 50 48 42 41 44 39 36 36 35 37 37 42 50 53 51 50 50 50 55 58
11 8 5 4 6 8 8 12 13 16 20 31 34 38 41 41 47 51 53 54 53 49 48 51 48 49 51 51 48 47 47 46 44 39 36 34 36 42 45 45 44 45 50 55 56 55 54 57 64
15 7 3 6 7 4 7 7 16 12 28 41 36 35 35 49 50 49 54 53 52 48 48 50 49 49 51 50 47 46 42 46 45 36 35 40 44 44 46 51 52 47 50 52 60 60 60 62 67
13 13 12 6 5 11 10 25 12 14 41 47 42 38 47 49 50 50 56 56 53 51 50 50 50 51 52 51 47 43 41 43 40 41 46 41 39 40 41 46 50 54 53 54 58 66 65 65 67
Wind_Direction
52 45 71 103 60 100 83 10 12 336 327 333 328 323 317 309 297 276 282 286 286 284 285 287 285 284 260 251 252 238 236 246 240 232 236 234 230 218 205 209 209 213 214 214 213 206 201 195 192
51 43 79 92 47 276 61 15 336 339 335 333 329 330 323 306 307 295 293 295 293 290 287 286 285 283 278 266 253 246 243 234 241 235 235 232 234 228 213 208 209 211 215 219 214 209 202 198 190
47 43 70 61 27 83 56 329 337 333 333 332 331 319 318 311 306 302 301 300 299 296 291 285 280 278 279 273 264 254 247 240 241 249 237 235 231 230 221 215 207 209 214 218 217 209 204 198 194
46 60 76 90 65 49 336 333 331 333 328 326 322 316 312 314 307 306 306 304 298 296 295 290 283 276 273 274 269 260 257 246 245 236 235 235 235 230 226 219 214 211 208 215 216 209 205 201 200
40 61 46 60 41 3 325 335 335 329 324 321 325 318 317 319 310 310 309 308 307 304 300 297 294 290 280 268 268 263 258 256 250 242 232 240 237 233 227 223 216 214 208 211 213 208 206 204 203
46 67 143 79 338 313 338 332 325 325 323 322 326 321 309 314 319 319 324 321 317 314 311 311 308 302 295 289 271 268 260 257 255 249 236 238 236 233 228 224 220 217 214 206 210 209 205 205 206
33 162 149 112 318 324 334 325 333 323 320 323 325 323 319 324 327 334 330 325 319 314 314 312 312 314 309 305 300 279 268 257 252 248 243 238 234 234 229 225 220 219 216 206 210 210 207 206 206
264 158 129 56 288 284 324 334 320 320 325 324 334 328 319 329 338 336 331 324 318 313 314 314 316 315 312 309 308 303 286 269 253 249 249 244 232 230 233 224 224 219 221 208 210 213 207 210 207
157 78 121 309 315 305 329 321 312 320 324 334 339 331 326 331 339 335 328 321 311 310 313 313 311 310 309 309 313 308 300 284 266 249 246 249 241 235 232 224 223 221 223 212 213 213 210 209 209
227 165 297 317 317 315 324 309 314 322 329 337 343 337 338 340 339 332 327 317 310 305 310 310 309 305 306 308 308 302 300 294 285 256 247 247 249 237 243 227 223 220 227 213 217 210 207 209 212
318 307 322 321 311 314 308 307 308 316 328 342 340 337 340 340 336 336 328 315 306 302 303 305 307 298 295 296 297 296 295 294 289 273 253 248 243 243 240 243 225 215 223 211 217 216 201 220 213
329 327 315 314 320 307 303 310 304 308 325 336 339 338 341 339 338 337 330 318 304 298 297 297 297 295 290 288 287 290 292 297 295 279 264 255 244 244 239 239 224 221 224 209 210 217 209 213 213
313 343 326 317 318 295 303 309 293 301 317 333 336 338 343 343 343 340 334 324 309 296 293 291 292 290 285 281 282 285 288 292 293 287 274 265 251 246 240 238 240 235 234 228 209 215 219 208 211
312 352 346 332 318 297 301 307 292 301 307 320 333 337 339 346 346 343 338 330 316 297 292 290 291 290 285 281 278 280 283 289 291 287 277 271 264 245 244 244 239 235 239 234 229 205 210 221 207
349 302 336 334 331 317 299 312 296 308 302 304 322 333 338 345 345 344 341 335 326 312 296 292 289 291 289 283 279 278 279 282 286 286 277 266 264 254 240 245 244 238 242 242 248 231 224 225 215
349 311 334 329 337 329 303 301 312 305 302 303 308 325 335 340 342 342 342 341 337 329 315 304 297 293 289 286 284 283 283 282 280 279 277 266 258 256 243 242 243 243 241 247 243 242 227 202 221
340 324 313 321 325 328 322 289 299 303 299 297 302 315 330 337 339 340 340 341 342 339 330 323 311 303 296 292 290 288 285 280 276 273 271 268 259 251 248 240 243 244 243 241 245 233 228 233 203
336 331 317 321 315 326 324 303 283 293 290 292 295 308 325 331 336 340 340 340 341 340 337 334 326 318 312 305 298 294 289 282 274 267 265 264 260 252 249 244 243 244 243 241 244 241 246 237 246
343 334 322 324 313 323 326 301 271 282 271 289 293 304 323 328 335 338 338 338 338 338 338 338 336 334 326 317 310 300 292 284 277 268 261 259 259 253 248 244 247 247 244 244 240 240 236 237 204
336 336 330 323 318 322 318 305 290 282 246 288 296 303 322 331 336 338 337 338 337 335 336 337 336 335 333 328 321 318 313 295 281 269 262 257 256 256 250 247 245 247 245 245 242 237 234 226 241
334 329 330 317 315 317 318 320 284 312 238 294 297 309 329 330 335 338 336 335 333 332 333 335 334 333 333 329 327 322 319 311 288 272 263 256 255 256 253 249 245 247 245 243 241 233 234 229 222
335 331 324 313 315 310 313 292 299 287 239 295 323 331 340 332 334 334 333 331 333 331 330 331 330 330 330 328 324 322 316 310 295 283 272 259 252 253 254 251 248 245 244 242 239 232 227 228 229
327 328 314 304 300 304 302 302 300 299 269 278 327 344 341 335 332 331 328 328 329 328 327 327 327 328 326 326 322 319 315 307 295 283 272 266 257 250 252 253 249 244 241 239 236 230 223 225 228
333 331 315 313 315 273 242 344 301 274 307 276 307 333 338 336 332 330 328 326 324 322 325 325 324 325 324 321 320 317 313 307 298 288 278 267 259 252 249 250 251 245 239 237 232 232 222 214 217
339 349 328 321 254 292 299 314 283 314 297 300 306 319 334 336 332 332 327 324 321 318 319 321 321 321 321 321 320 318 312 306 299 294 285 272 261 254 250 249 251 248 241 235 232 229 224 221 222
334 1 34 315 314 307 289 236 338 333 313 306 305 307 325 329 331 330 325 321 319 316 315 315 316 318 320 319 318 315 311 306 299 295 292 279 268 260 252 245 244 247 244 238 232 229 223 220 214
321 333 323 274 278 290 242 288 324 345 341 334 314 318 324 329 329 329 323 318 316 314 310 311 314 316 319 318 317 313 310 305 299 298 287 277 272 268 263 257 251 243 241 238 235 228 225 217 213
314 299 314 335 308 308 274 287 259 327 351 344 331 322 324 331 323 323 321 315 313 311 309 309 314 316 317 316 315 311 308 304 300 294 285 277 275 278 277 271 261 254 246 236 233 229 225 217 213
299 283 271 284 242 270 299 262 288 309 344 340 330 330 331 325 324 319 323 318 314 310 309 307 312 315 316 316 314 310 305 302 296 290 281 281 280 277 273 274 271 259 251 242 231 228 224 219 211
297 281 267 242 267 242 269 279 317 322 329 327 319 322 326 327 326 321 322 319 316 311 309 308 313 317 317 316 313 309 302 299 291 292 290 284 276 271 267 266 264 261 254 243 233 227 224 220 213
Height
3144 3143 3142 3143 3148 3148 3149 3149 3146 3145 3145 3144 3143 3143 3143 3143 3143 3145 3138 3136 3134 3132 3131 3131 3130 3129 3129 3129 3127 3127 3128 3128 3128 3129 3131 3132 3133 3133 3134 3136 3137 3138 3141 3142 3143 3145 3146 3147 3149
3144 3143 3143 3143 3147 3145 3149 3147 3145 3145 3144 3143 3142 3141 3141 3139 3139 3137 3134 3134 3131 3130 3128 3127 3125 3124 3124 3124 3122 3122 3122 3124 3124 3124 3127 3128 3131 3132 3133 3132 3135 3136 3139 3141 3142 3144 3145 3147 3148
3144 3143 3144 3145 3146 3147 3149 3145 3145 3144 3143 3142 3141 3141 3139 3137 3136 3133 3132 3128 3126 3124 3122 3121 3119 3118 3117 3117 3119 3117 3117 3118 3118 3120 3122 3124 3126 3129 3129 3130 3131 3132 3135 3140 3141 3143 3144 3146 3147
3144 3144 3146 3147 3145 3146 3146 3145 3144 3143 3142 3142 3140 3137 3137 3135 3131 3129 3127 3124 3120 3117 3115 3113 3111 3111 3110 3109 3110 3112 3110 3110 3112 3115 3116 3119 3121 3124 3126 3128 3129 3130 3132 3135 3138 3140 3142 3144 3147
3144 3145 3147 3146 3145 3145 3144 3143 3143 3143 3141 3139 3137 3134 3131 3132 3127 3124 3120 3117 3114 3111 3109 3107 3104 3102 3102 3102 3101 3103 3104 3103 3104 3107 3108 3112 3115 3119 3122 3124 3127 3127 3127 3131 3135 3137 3141 3143 3145
3144 3146 3148 3148 3145 3144 3144 3143 3142 3141 3139 3137 3135 3132 3130 3126 3122 3119 3114 3111 3109 3106 3104 3101 3099 3098 3096 3094 3095 3095 3097 3097 3097 3099 3102 3106 3109 3112 3116 3119 3122 3123 3124 3126 3130 3134 3137 3140 3143
3145 3146 3146 3146 3145 3143 3143 3142 3140 3139 3137 3135 3132 3128 3125 3122 3117 3112 3110 3107 3105 3102 3101 3100 3098 3095 3092 3090 3089 3087 3087 3090 3091 3092 3095 3099 3103 3106 3110 3114 3117 3120 3121 3123 3126 3128 3134 3137 3139
3145 3145 3145 3145 3145 3143 3141 3139 3138 3136 3134 3132 3129 3125 3122 3115 3111 3108 3105 3104 3101 3099 3097 3095 3092 3091 3089 3085 3083 3081 3080 3080 3082 3085 3087 3090 3094 3099 3103 3107 3112 3115 3117 3119 3122 3125 3128 3134 3137
3144 3145 3144 3143 3142 3141 3139 3137 3136 3133 3131 3127 3124 3123 3119 3112 3107 3103 3101 3099 3097 3095 3094 3092 3089 3086 3085 3083 3078 3075 3074 3072 3073 3077 3080 3083 3086 3090 3095 3099 3105 3109 3112 3115 3116 3120 3122 3129 3134
3143 3143 3143 3142 3140 3138 3136 3135 3132 3130 3126 3123 3119 3117 3114 3107 3103 3100 3097 3095 3093 3091 3090 3087 3085 3083 3080 3078 3077 3073 3070 3068 3066 3068 3072 3076 3079 3081 3085 3090 3097 3103 3106 3108 3112 3116 3119 3124 3129
3143 3142 3141 3140 3138 3136 3134 3132 3129 3126 3123 3120 3117 3114 3108 3105 3100 3095 3093 3091 3089 3087 3085 3083 3081 3078 3075 3073 3073 3071 3067 3063 3062 3062 3063 3068 3072 3073 3082 3086 3089 3095 3100 3099 3106 3110 3113 3117 3123
3142 3141 3139 3138 3136 3135 3132 3129 3126 3123 3121 3117 3115 3111 3107 3103 3098 3092 3088 3086 3085 3084 3081 3078 3076 3075 3072 3071 3069 3068 3066 3062 3060 3058 3059 3060 3066 3069 3071 3077 3084 3084 3090 3089 3097 3105 3108 3111 3116
3141 3140 3138 3137 3134 3132 3129 3125 3122 3120 3118 3115 3112 3108 3104 3100 3095 3090 3086 3082 3080 3079 3077 3074 3072 3071 3069 3067 3066 3064 3062 3060 3058 3057 3056 3056 3059 3062 3068 3075 3076 3079 3082 3084 3091 3098 3100 3103 3107
3140 3138 3136 3134 3131 3128 3125 3122 3119 3118 3115 3113 3110 3106 3102 3097 3093 3088 3084 3081 3077 3074 3072 3070 3069 3067 3065 3063 3061 3059 3057 3056 3055 3053 3053 3053 3053 3057 3060 3063 3069 3071 3074 3078 3084 3090 3096 3098 3097
3138 3137 3134 3132 3128 3124 3121 3119 3116 3113 3112 3109 3106 3103 3099 3094 3090 3087 3084 3080 3074 3069 3067 3064 3063 3063 3061 3058 3056 3054 3053 3052 3051 3049 3049 3050 3050 3050 3053 3055 3059 3064 3068 3073 3073 3086 3090 3093 3099
3137 3135 3132 3129 3126 3123 3120 3116 3113 3110 3109 3106 3104 3101 3097 3092 3089 3085 3082 3078 3072 3067 3063 3060 3058 3056 3052 3051 3050 3049 3047 3046 3045 3045 3043 3043 3045 3046 3047 3049 3053 3057 3061 3066 3072 3075 3081 3087 3089
3136 3135 3131 3127 3122 3119 3116 3111 3109 3107 3105 3103 3100 3099 3095 3091 3087 3083 3078 3074 3069 3065 3060 3057 3053 3050 3047 3044 3043 3040 3038 3036 3036 3037 3037 3036 3037 3041 3043 3044 3046 3050 3055 3056 3061 3069 3075 3081 3075
3137 3132 3128 3124 3119 3115 3112 3105 3107 3104 3102 3101 3099 3096 3093 3089 3085 3080 3075 3070 3065 3061 3057 3054 3050 3046 3041 3037 3035 3032 3028 3025 3026 3027 3029 3031 3030 3033 3037 3039 3041 3045 3049 3054 3056 3064 3070 3077 3081
3135 3131 3125 3121 3114 3109 3106 3100 3102 3098 3097 3097 3096 3094 3091 3086 3082 3077 3072 3067 3062 3058 3054 3048 3045 3042 3036 3031 3026 3023 3020 3017 3015 3016 3019 3022 3024 3025 3029 3032 3034 3037 3043 3049 3053 3057 3065 3074 3076
3132 3128 3124 3117 3112 3105 3099 3095 3093 3093 3093 3094 3092 3090 3087 3083 3077 3071 3066 3062 3056 3051 3046 3041 3036 3032 3028 3024 3017 3012 3009 3009 3006 3005 3007 3011 3015 3017 3020 3023 3026 3029 3033 3038 3043 3047 3053 3065 3073
3131 3127 3122 3115 3107 3104 3096 3090 3088 3088 3088 3089 3089 3086 3082 3078 3073 3067 3061 3055 3050 3046 3041 3036 3031 3024 3019 3013 3009 3003 3001 3000 2997 2997 2997 3001 3004 3007 3010 3014 3017 3020 3024 3029 3034 3039 3043 3052 3065
3127 3124 3119 3112 3109 3105 3101 3093 3087 3085 3085 3086 3084 3081 3077 3073 3066 3060 3056 3051 3045 3039 3034 3029 3024 3018 3013 3007 3000 2997 2992 2991 2991 2989 2990 2991 2994 2997 3000 3004 3008 3011 3015 3020 3024 3029 3034 3040 3048
3128 3122 3114 3108 3105 3103 3099 3099 3083 3083 3082 3082 3080 3076 3073 3070 3064 3059 3053 3045 3039 3033 3029 3023 3018 3012 3006 3001 2994 2987 2985 2982 2983 2981 2980 2982 2985 2987 2990 2993 2999 3003 3006 3011 3017 3021 3027 3032 3036
3123 3116 3108 3105 3105 3104 3099 3100 3081 3081 3080 3078 3075 3071 3068 3064 3059 3052 3046 3040 3034 3027 3022 3017 3012 3006 3000 2994 2990 2983 2977 2975 2973 2975 2971 2973 2974 2977 2981 2983 2987 2994 2998 3002 3006 3012 3018 3024 3031
3120 3113 3109 3107 3103 3097 3097 3096 3081 3080 3077 3075 3072 3067 3062 3057 3052 3047 3040 3034 3028 3022 3015 3010 3004 2998 2992 2984 2979 2976 2970 2965 2964 2963 2963 2961 2962 2966 2970 2973 2976 2981 2988 2992 2997 3002 3008 3014 3021
3118 3118 3118 3116 3102 3096 3094 3087 3080 3077 3076 3073 3070 3065 3059 3054 3047 3040 3033 3025 3020 3014 3007 3002 2996 2989 2983 2976 2969 2963 2961 2956 2953 2952 2950 2950 2949 2951 2957 2960 2964 2968 2975 2980 2985 2992 2997 3004 3012
3118 3119 3120 3116 3109 3106 3086 3081 3076 3074 3072 3070 3066 3061 3056 3049 3043 3034 3027 3019 3012 3006 3000 2993 2987 2981 2974 2967 2960 2953 2947 2946 2943 2940 2938 2936 2938 2940 2941 2946 2951 2955 2960 2968 2973 2979 2986 2993 3002
3118 3118 3116 3115 3110 3098 3080 3077 3073 3072 3070 3069 3065 3058 3053 3048 3040 3031 3022 3013 3004 2997 2991 2984 2978 2971 2964 2957 2951 2943 2937 2932 2931 2929 2925 2927 2927 2926 2925 2930 2938 2942 2945 2952 2959 2967 2975 2983 2993
3115 3115 3115 3116 3113 3106 3089 3071 3068 3067 3064 3060 3058 3054 3047 3041 3033 3023 3013 3003 2996 2989 2982 2975 2969 2961 2953 2946 2940 2934 2927 2922 2917 2918 2921 2918 2915 2916 2915 2913 2915 2926 2932 2937 2944 2952 2961 2970 2980
3111 3111 3113 3113 3108 3105 3097 3063 3061 3061 3059 3055 3050 3046 3039 3032 3023 3015 3004 2993 2985 2977 2972 2966 2958 2950 2943 2935 2929 2923 2917 2911 2907 2903 2902 2906 2907 2905 2904 2903 2903 2906 2914 2921 2928 2934 2945 2954 2966